Meteo Giornale » Osservazioni meteo Danimarca » Aalborg
ore: 09:50 - Osservazioni Meteo Aalborg
Lat. 57° 6' N Lon. 9° 51' E Alt. 3 metri s.l.m.
17 °C
Molto Nuvoloso
Temp. 24 Ore
13 °C
20 °C
Ovest
22.2 Km/h
Dew point 14 °C
Umidità 82 %
Visibilità 10 Km
Il sole sorge alle ore 06:22
Il sole tramonta alle ore 20:18
| Data e Ora | Cielo e Fenomeni | T °C | DP °C | Um. % | Pres. hPa | Vis. km | Vento km/h | |
|---|---|---|---|---|---|---|---|---|
| Oggi h: 09:50 | Molto Nuvoloso | 17 | 14 | 82 | 1009 | 10 | O 22.2 | |
| Oggi h: 09:41 | Molto Nuvoloso | 16 | 14 | 87 | 1009 | 10 | O 24 | |
| Oggi h: 09:20 | Molto Nuvoloso | 16 | 14 | 87 | 1009 | 10 | O/SO 20.3 | |
| Oggi h: 08:50 | Poco Nuvoloso | 15 | 14 | 93 | 1009 | 10 | O/SO 16.7 | |
| Oggi h: 08:20 | Molto Nuvoloso | 15 | 14 | 93 | 1009 | 10 | O/SO 16.7 | |
| Oggi h: 07:50 | Molto Nuvoloso | 15 | 14 | 93 | 1009 | 10 | O/SO 16.7 | |
| Oggi h: 07:20 | Coperto | 15 | 14 | 93 | 1008 | 10 | O/SO 16.7 | |
| Oggi h: 06:50 | Coperto | 15 | 14 | 93 | 1008 | 10 | O/SO 18.5 | |
| Oggi h: 06:20 | Molto Nuvoloso | 15 | 14 | 93 | 1008 | 10 | O/SO 14.8 | |
| Oggi h: 05:50 | Molto Nuvoloso | 15 | 14 | 93 | 1008 | 10 | O 13 | |
| Oggi h: 05:20 | Coperto | 15 | 14 | 93 | 1008 | 10 | O/SO 14.8 | |
| Oggi h: 04:50 | Coperto | 15 | 15 | 100 | 1008 | 10 | O/SO 13 | |
| Oggi h: 04:20 | Coperto | 15 | 15 | 100 | 1008 | 10 | O/SO 9.3 | |
| Oggi h: 03:50 | Coperto | 15 | 14 | 93 | 1008 | 8 | O 9.3 | |
| Oggi h: 03:20 | Sereno | 15 | 15 | 100 | 1007 | 6 | O 11.1 | |
| Oggi h: 02:50 | Sereno | 15 | 15 | 100 | 1007 | 8 | O 11.1 | |
| Oggi h: 02:20 | Sereno | 15 | 14 | 93 | 1007 | 10 | O 9.3 | |
| Oggi h: 01:50 | Sereno | 14 | 14 | 100 | 1007 | 10 | O/SO 7.4 | |
| Oggi h: 01:42 | Banco di nebbia | 14 | 14 | 100 | 1007 | 3 | O/SO 7.4 | |
| Oggi h: 01:37 | Banco di nebbia | 14 | 13 | 93 | 1007 | 2 | O/SO 7.4 | |
| Oggi h: 01:36 | Banco di nebbia | 14 | 13 | 93 | 1007 | 3 | O/SO 7.4 | |
| Oggi h: 01:34 | Banco di nebbia | 14 | 13 | 93 | 1007 | 5 | O/SO 7.4 | |
| Oggi h: 01:24 | Banco di nebbia | 13 | 13 | 100 | 1007 | 2 | N 5.5 | |
| Oggi h: 01:20 | Banco di nebbia | 13 | 13 | 100 | 1007 | 4 | N 5.5 | |
| Oggi h: 01:13 | Banco di nebbia | 13 | 13 | 100 | 1007 | 4 | N 5.5 | |
| Oggi h: 01:10 | Banco di nebbia | 13 | 13 | 100 | 1007 | 4 | N 5.5 | |
| Oggi h: 01:01 | Foschia | 13 | 13 | 100 | 1007 | 4 | N 5.5 | |
| Oggi h: 00:59 | Foschia | 13 | 13 | 100 | 1007 | 5 | N 5.5 | |
| Oggi h: 00:50 | Nuvoloso | 14 | 13 | 93 | 1007 | 8 | N 3.7 | |
| Oggi h: 00:34 | Banco di nebbia | 14 | 13 | 93 | 1007 | 4 | N 3.7 | |
| Oggi h: 00:31 | Banco di nebbia | 14 | 13 | 93 | 1007 | 3 | N 3.7 | |
| Oggi h: 00:29 | Banco di nebbia | 14 | 13 | 93 | 1007 | 0.9 | N 3.7 | |
| Oggi h: 00:28 | Banco di nebbia | 14 | 13 | 93 | 1007 | 3 | N 3.7 | |
| Oggi h: 00:26 | Banco di nebbia | 14 | 13 | 93 | 1007 | 4 | N 3.7 | |
| Oggi h: 00:23 | Banco di nebbia | 14 | 13 | 93 | 1007 | 3 | N 3.7 | |
| Oggi h: 00:20 | Nebbia | 14 | 13 | 93 | 1007 | 10 | N 3.7 | |
| Oggi h: 00:08 | Nuvoloso | 14 | 13 | 93 | 1007 | 6 | N 5.5 | |
| Ieri h: 23:59 | Molto Nuvoloso | 14 | 14 | 100 | 1007 | 7 | N 5.5 | |
| Ieri h: 23:50 | Molto Nuvoloso | 14 | 14 | 100 | 1007 | 10 | N 5.5 | |
| Ieri h: 23:38 | Foschia | 14 | 14 | 100 | 1007 | 5 | N 5.5 | |
| Ieri h: 23:30 | Nuvoloso | 14 | 14 | 100 | 1007 | 7 | N 5.5 | |
| Ieri h: 23:20 | Nuvoloso | 15 | 14 | 93 | 1007 | 6 | N 1.8 | |
| Ieri h: 23:18 | Nuvoloso | 15 | 14 | 93 | 1007 | 6 | N 1.8 | |
| Ieri h: 23:02 | Nuvoloso | 14 | 14 | 100 | 1007 | 7 | N 3.7 | |
| Ieri h: 22:56 | Nuvoloso | 15 | 14 | 93 | 1007 | 5 | N 3.7 | |
| Ieri h: 22:50 | Molto Nuvoloso | 15 | 14 | 93 | 1007 | 10 | N 3.7 | |
| Ieri h: 22:20 | Coperto | 15 | 14 | 93 | 1006 | 10 | O/NO 7.4 | |
| Ieri h: 21:50 | Coperto | 16 | 15 | 93 | 1006 | 10 | N 3.7 | |
| Ieri h: 21:20 | Coperto | 16 | 15 | 93 | 1006 | 10 | N 5.5 | |
| Ieri h: 21:06 | Foschia | 15 | 14 | 93 | 1006 | 4 | N 3.7 | |
| Ieri h: 21:03 | Foschia | 15 | 14 | 93 | 1006 | 4 | N 1.8 | |
| Ieri h: 20:58 | Molto Nuvoloso | 15 | 14 | 93 | 1006 | 6 | N 1.8 | |
| Ieri h: 20:50 | Molto Nuvoloso | 15 | 14 | 93 | 1006 | 10 | N 0 | |
| Ieri h: 20:43 | Foschia | 15 | 15 | 100 | 1006 | 4 | N 1.8 | |
| Ieri h: 20:20 | Molto Nuvoloso | 16 | 15 | 93 | 1006 | 10 | N 1.8 | |
| Ieri h: 19:50 | Molto Nuvoloso | 16 | 15 | 93 | 1005 | 10 | N 5.5 | |
| Ieri h: 19:20 | Molto Nuvoloso | 17 | 15 | 88 | 1005 | 10 | N 1.8 | |
| Ieri h: 18:50 | Molto Nuvoloso | 16 | 15 | 93 | 1005 | 10 | N 5.5 | |
| Ieri h: 18:48 | Molto Nuvoloso | 16 | 15 | 93 | 1005 | 10 | N 5.5 | |
| Ieri h: 18:20 | Pioggia | 16 | 15 | 93 | 1005 | 10 | N 3.7 | |
| Ieri h: 17:50 | Pioggia | 16 | 15 | 93 | 1005 | 10 | N 5.5 | |
| Ieri h: 17:48 | Pioggia | 16 | 15 | 93 | 1005 | 10 | N 5.5 | |
| Ieri h: 17:46 | Pioggia | 16 | 15 | 93 | 1005 | 7 | N 5.5 | |
| Ieri h: 17:41 | Pioggia | 16 | 15 | 93 | 1005 | 7 | E/NE 7.4 | |
| Ieri h: 17:31 | Pioggia | 16 | 15 | 93 | 1005 | 3 | E/NE 9.3 | |
| Ieri h: 17:21 | Pioggia | 16 | 15 | 93 | 1005 | 1 | N 3.7 | |
| Ieri h: 17:20 | Pioggia | 16 | 16 | 100 | 1005 | 3 | N 3.7 | |
| Ieri h: 17:19 | Pioggia | 16 | 16 | 100 | 1005 | 3 | N 3.7 | |
| Ieri h: 17:16 | Pioggia | 17 | 16 | 93 | 1005 | 4 | N 5.5 | |
| Ieri h: 17:15 | Pioggia | 17 | 16 | 93 | 1005 | 5 | N 5.5 | |
| Ieri h: 17:11 | Pioggia | 17 | 16 | 93 | 1005 | 10 | N 9.3 | |
| Ieri h: 16:50 | Pioggia | 17 | 16 | 93 | 1005 | 10 | E/NE 7.4 | |
| Ieri h: 16:20 | Pioggia | 17 | 16 | 93 | 1005 | 10 | N 3.7 | |
| Ieri h: 15:50 | Pioggia | 16 | 15 | 93 | 1005 | 10 | N 3.7 | |
| Ieri h: 15:20 | Pioggia | 16 | 15 | 93 | 1005 | 10 | N 3.7 | |
| Ieri h: 15:13 | Pioggia | 16 | 15 | 93 | 1005 | 10 | N 5.5 | |
| Ieri h: 14:58 | Pioggia | 15 | 14 | 93 | 1005 | 7 | N 5.5 | |
| Ieri h: 14:50 | Pioggia | 15 | 14 | 93 | 1005 | 5 | SE 7.4 | |
| Ieri h: 14:48 | Pioggia | 15 | 14 | 93 | 1005 | 5 | S/SE 7.4 | |
| Ieri h: 14:46 | Pioggia | 15 | 14 | 93 | 1005 | 5 | S/SE 7.4 | |
| Ieri h: 14:43 | Pioggia | 16 | 14 | 87 | 1005 | 5 | S/SE 9.3 | |
| Ieri h: 14:37 | Pioggia | 16 | 15 | 93 | 1005 | 3 | S 16.7 | |
| Ieri h: 14:34 | Pioggia | 16 | 15 | 93 | 1005 | 5 | S 18.5 | |
| Ieri h: 14:29 | Pioggia | 17 | 14 | 82 | 1005 | 7 | S 16.7 | |
| Ieri h: 14:26 | Pioggia | 17 | 14 | 82 | 1005 | 7 | S 13 | |
| Ieri h: 14:20 | Pioggia | 19 | 16 | 82 | 1005 | 10 | S/SE 9.3 | |
| Ieri h: 13:53 | Pioggia | 19 | 14 | 72 | 1005 | 10 | SE 11.1 | |
| Ieri h: 13:50 | Molto Nuvoloso | 19 | 14 | 72 | 1005 | 10 | SE 9.3 | |
| Ieri h: 13:20 | Molto Nuvoloso | 20 | 14 | 68 | 1004 | 10 | S/SE 7.4 | |
| Ieri h: 12:50 | Molto Nuvoloso | 20 | 14 | 68 | 1005 | 10 | SE 7.4 | |
| Ieri h: 12:20 | Molto Nuvoloso | 19 | 14 | 72 | 1005 | 10 | S 7.4 | |
| Ieri h: 11:50 | Molto Nuvoloso | 19 | 14 | 72 | 1005 | 10 | S 13 | |
| Ieri h: 11:20 | Poco Nuvoloso | 18 | 14 | 77 | 1005 | 10 | SE 7.4 | |
| Ieri h: 10:50 | Nuvoloso | 18 | 14 | 77 | 1006 | 10 | S/SE 9.3 | |



